TimeCST,TemperatureF,Dew PointF,Humidity,Sea Level PressureIn,VisibilityMPH,Wind Direction,Wind SpeedMPH,Gust SpeedMPH,PrecipitationIn,Events,Conditions,WindDirDegrees,DateUTC
12:15 AM,21.2,15.8,80,29.91,10.0,SSW,13.8,-,N/A,,Clear,200,2013-01-16 06:15:00
12:35 AM,19.4,15.8,86,29.90,10.0,SSW,13.8,-,N/A,,Clear,210,2013-01-16 06:35:00
12:55 AM,19.4,15.8,86,29.88,10.0,SSW,15.0,-,N/A,,Clear,200,2013-01-16 06:55:00
1:15 AM,21.2,15.8,80,29.87,10.0,SSW,15.0,-,N/A,,Clear,200,2013-01-16 07:15:00
1:35 AM,21.2,15.8,80,29.86,10.0,SSW,16.1,-,N/A,,Clear,200,2013-01-16 07:35:00
1:55 AM,21.2,15.8,80,29.85,10.0,SSW,15.0,-,N/A,,Clear,200,2013-01-16 07:55:00
2:15 AM,21.2,15.8,80,29.84,-9999.0,SSW,17.3,24.2,N/A,,Clear,200,2013-01-16 08:15:00
2:35 AM,21.2,15.8,80,29.84,10.0,SSW,15.0,-,N/A,,Partly Cloudy,200,2013-01-16 08:35:00
2:55 AM,21.2,15.8,80,29.83,10.0,SSW,15.0,21.9,N/A,,Scattered Clouds,210,2013-01-16 08:55:00
3:15 AM,21.2,17.6,86,29.82,10.0,SSW,15.0,-,N/A,,Overcast,210,2013-01-16 09:15:00
3:35 AM,23.0,17.6,80,29.80,10.0,SSW,16.1,-,N/A,,Overcast,200,2013-01-16 09:35:00
3:55 AM,24.8,17.6,74,29.81,10.0,SSW,17.3,23.0,N/A,,Overcast,210,2013-01-16 09:55:00
4:15 AM,24.8,17.6,74,29.78,10.0,SSW,18.4,25.3,N/A,,Overcast,210,2013-01-16 10:15:00
4:35 AM,24.8,17.6,74,29.78,10.0,SSW,15.0,24.2,N/A,,Overcast,210,2013-01-16 10:35:00
4:55 AM,24.8,17.6,74,29.79,10.0,SW,16.1,23.0,N/A,,Overcast,230,2013-01-16 10:55:00
5:15 AM,24.8,17.6,74,29.77,10.0,SW,19.6,26.5,N/A,,Overcast,220,2013-01-16 11:15:00
5:35 AM,24.8,19.4,80,29.77,10.0,SW,17.3,-,N/A,,Overcast,230,2013-01-16 11:35:00
5:55 AM,24.8,21.2,86,29.77,8.0,SW,19.6,-,N/A,,Overcast,230,2013-01-16 11:55:00
6:35 AM,26.6,21.2,80,29.77,10.0,SW,17.3,23.0,N/A,,Overcast,230,2013-01-16 12:35:00
6:55 AM,26.6,21.2,80,29.78,10.0,WSW,15.0,-,N/A,,Overcast,240,2013-01-16 12:55:00
7:15 AM,26.6,23.0,86,29.77,10.0,SW,15.0,-,N/A,,Overcast,230,2013-01-16 13:15:00
7:35 AM,26.6,23.0,86,29.78,10.0,SW,12.7,20.7,N/A,,Overcast,230,2013-01-16 13:35:00
7:55 AM,26.6,23.0,86,29.78,10.0,SW,15.0,-,N/A,,Overcast,230,2013-01-16 13:55:00
8:15 AM,26.6,23.0,86,29.78,10.0,SW,17.3,-,N/A,,Mostly Cloudy,230,2013-01-16 14:15:00
8:35 AM,28.4,24.8,86,29.80,10.0,SW,16.1,-,N/A,,Overcast,230,2013-01-16 14:35:00
8:55 AM,28.4,24.8,86,29.81,10.0,WSW,17.3,-,N/A,,Overcast,240,2013-01-16 14:55:00
9:15 AM,28.4,24.8,86,29.81,10.0,WSW,15.0,20.7,N/A,,Overcast,240,2013-01-16 15:15:00
9:35 AM,30.2,26.6,86,29.82,10.0,WSW,13.8,-,N/A,,Overcast,250,2013-01-16 15:35:00
9:55 AM,32.0,28.4,87,29.83,10.0,West,15.0,21.9,N/A,,Overcast,260,2013-01-16 15:55:00
10:15 AM,33.8,28.4,81,29.83,10.0,West,16.1,-,N/A,,Mostly Cloudy,270,2013-01-16 16:15:00
10:35 AM,35.6,30.2,81,29.82,10.0,West,17.3,24.2,N/A,,Clear,270,2013-01-16 16:35:00
10:55 AM,39.2,32.0,75,29.83,10.0,West,16.1,-,N/A,,Clear,260,2013-01-16 16:55:00
11:15 AM,39.2,32.0,75,29.83,10.0,West,17.3,23.0,N/A,,Clear,280,2013-01-16 17:15:00
11:35 AM,41.0,32.0,70,29.82,10.0,West,16.1,-,N/A,,Clear,280,2013-01-16 17:35:00
11:55 AM,41.0,32.0,70,29.82,10.0,WNW,17.3,-,N/A,,Clear,290,2013-01-16 17:55:00
12:15 PM,42.8,33.8,70,29.82,10.0,West,16.1,-,N/A,,Partly Cloudy,280,2013-01-16 18:15:00
12:35 PM,42.8,33.8,70,29.81,10.0,WNW,18.4,-,N/A,,Mostly Cloudy,290,2013-01-16 18:35:00
12:55 PM,42.8,33.8,70,29.82,10.0,West,15.0,23.0,N/A,,Overcast,280,2013-01-16 18:55:00
1:15 PM,42.8,33.8,70,29.81,10.0,WNW,17.3,-,N/A,,Mostly Cloudy,290,2013-01-16 19:15:00
1:35 PM,42.8,33.8,70,29.81,10.0,WNW,17.3,-,N/A,,Overcast,290,2013-01-16 19:35:00
1:55 PM,42.8,33.8,70,29.82,10.0,WNW,16.1,-,N/A,,Overcast,290,2013-01-16 19:55:00
2:15 PM,42.8,35.6,76,29.82,10.0,WNW,16.1,-,N/A,,Overcast,290,2013-01-16 20:15:00
2:35 PM,44.6,35.6,71,29.83,10.0,WNW,20.7,-,N/A,,Overcast,290,2013-01-16 20:35:00
2:55 PM,42.8,35.6,76,29.84,10.0,WNW,13.8,-,N/A,,Mostly Cloudy,300,2013-01-16 20:55:00
3:15 PM,41.0,35.6,81,29.86,10.0,WNW,13.8,-,N/A,,Overcast,300,2013-01-16 21:15:00
3:35 PM,41.0,33.8,76,29.87,10.0,WNW,13.8,-,N/A,,Overcast,300,2013-01-16 21:35:00
3:55 PM,41.0,33.8,76,29.89,10.0,NW,16.1,23.0,N/A,,Overcast,310,2013-01-16 21:55:00
4:15 PM,39.2,33.8,81,29.91,10.0,NW,15.0,-,N/A,,Overcast,310,2013-01-16 22:15:00
4:35 PM,39.2,33.8,81,29.93,10.0,NW,10.4,-,N/A,,Overcast,320,2013-01-16 22:35:00
4:55 PM,39.2,33.8,81,29.94,10.0,NNW,13.8,20.7,N/A,,Overcast,330,2013-01-16 22:55:00
5:15 PM,37.4,33.8,87,29.97,10.0,NNW,16.1,25.3,N/A,,Overcast,340,2013-01-16 23:15:00
5:35 PM,33.8,32.0,93,29.99,10.0,North,19.6,27.6,N/A,,Overcast,350,2013-01-16 23:35:00
5:55 PM,32.0,30.2,93,30.00,10.0,North,17.3,-,N/A,,Overcast,350,2013-01-16 23:55:00
6:15 PM,32.0,30.2,93,30.02,10.0,NNW,17.3,29.9,N/A,,Overcast,340,2013-01-17 00:15:00
6:35 PM,32.0,28.4,87,30.03,10.0,North,12.7,20.7,N/A,,Overcast,350,2013-01-17 00:35:00
6:55 PM,30.2,28.4,93,30.04,10.0,North,12.7,-,N/A,,Overcast,350,2013-01-17 00:55:00
7:15 PM,30.2,28.4,93,30.06,10.0,NNW,15.0,-,N/A,,Overcast,340,2013-01-17 01:15:00
7:35 PM,30.2,26.6,86,30.08,10.0,NNW,18.4,-,N/A,,Overcast,340,2013-01-17 01:35:00
7:55 PM,28.4,24.8,86,30.08,10.0,North,20.7,-,N/A,,Overcast,350,2013-01-17 01:55:00
8:15 PM,28.4,24.8,86,30.09,10.0,North,13.8,25.3,N/A,,Overcast,350,2013-01-17 02:15:00
8:35 PM,26.6,23.0,86,30.11,10.0,North,16.1,25.3,N/A,,Overcast,350,2013-01-17 02:35:00
8:55 PM,24.8,21.2,86,30.12,10.0,North,17.3,25.3,N/A,,Overcast,350,2013-01-17 02:55:00
9:15 PM,23.0,19.4,86,30.14,10.0,North,15.0,23.0,N/A,,Scattered Clouds,350,2013-01-17 03:15:00
9:35 PM,21.2,19.4,93,30.15,10.0,NNW,12.7,23.0,N/A,,Mostly Cloudy,340,2013-01-17 03:35:00
9:55 PM,21.2,17.6,86,30.17,10.0,NNW,13.8,-,N/A,,Partly Cloudy,340,2013-01-17 03:55:00
10:15 PM,19.4,15.8,86,30.18,10.0,NNW,9.2,-,N/A,,Clear,330,2013-01-17 04:15:00
10:35 PM,19.4,14.0,80,30.19,10.0,NNW,11.5,-,N/A,,Clear,340,2013-01-17 04:35:00
10:55 PM,17.6,14.0,86,30.19,10.0,NNW,10.4,-,N/A,,Clear,330,2013-01-17 04:55:00
11:15 PM,17.6,12.2,79,30.20,10.0,NNW,11.5,-,N/A,,Clear,330,2013-01-17 05:15:00
11:35 PM,15.8,10.4,79,30.20,10.0,NNW,12.7,18.4,N/A,,Clear,340,2013-01-17 05:35:00
11:55 PM,15.8,8.6,73,30.21,10.0,NNW,11.5,-,N/A,,Clear,330,2013-01-17 05:55:00